This is the latest recevied weather packets stored in our database for station/object WC4PEM-9. If no packets are shown the sender has not sent any weather packets the latest 1 day(s).
| Time | Temp. | Humidity | Pressure | Rain* | Wind** | Luminosity | Snow |
|---|---|---|---|---|---|---|---|
| 1777967559 | 16.11° C | 93% | 1014.3 hPa | 0 mm | 0.45 m/s, 316° | - | - |
| 1777967309 | 16.11° C | 93% | 1014.3 hPa | 0 mm | 0.45 m/s, 316° | - | - |
| 1777967290 | 16.11° C | 93% | 1014.2 hPa | 0 mm | 0.45 m/s, 265° | - | - |
| 1777967009 | 16.11° C | 93% | 1014.2 hPa | 0 mm | 0.45 m/s, 265° | - | - |
| 1777966709 | 16.11° C | 93% | 1014.2 hPa | 0 mm | 0.45 m/s, 313° | - | - |
| 1777966679 | 16.11° C | 93% | 1013.9 hPa | 0 mm | 0.45 m/s, 309° | - | - |
| 1777966409 | 16.11° C | 93% | 1013.9 hPa | 0 mm | 0.45 m/s, 309° | - | - |
| 1777966297 | 16.11° C | 92% | 1014 hPa | 0 mm | 0.45 m/s, 9° | - | - |
| 1777966109 | 16.11° C | 92% | 1014 hPa | 0 mm | 0.45 m/s, 9° | - | - |
| 1777965809 | 16.11° C | 92% | 1014 hPa | 0 mm | 0.45 m/s, 9° | - | - |
| 1777965707 | 16.11° C | 92% | 1014.1 hPa | 0 mm | 0.89 m/s, 221° | - | - |
| 1777965509 | 16.11° C | 92% | 1014.1 hPa | 0 mm | 0.89 m/s, 221° | - | - |
| 1777965275 | 16.67° C | 92% | 1014.2 hPa | 0 mm | 0.89 m/s, 323° | - | - |
| 1777965209 | 16.11° C | 92% | 1014.2 hPa | 0 mm | 0.89 m/s, 9° | - | - |
| 1777964909 | 16.67° C | 92% | 1014.2 hPa | 0 mm | 0.89 m/s, 323° | - | - |
| 1777964838 | 16.67° C | 92% | 1014.2 hPa | 0 mm | 0.45 m/s, 309° | - | - |
| 1777964617 | 16.67° C | 92% | 1014.1 hPa | 0 mm | 0.45 m/s, 309° | - | - |
| 1777964609 | 16.67° C | 92% | 1014.2 hPa | 0 mm | 0.45 m/s, 309° | - | - |
| 1777964309 | 16.67° C | 92% | 1014.1 hPa | 0 mm | 0.45 m/s, 309° | - | - |
| 1777964287 | 16.67° C | 92% | 1014.1 hPa | 0 mm | 0.45 m/s, 9° | - | - |
| 1777964009 | 16.67° C | 92% | 1014.1 hPa | 0 mm | 0.45 m/s, 9° | - | - |
| 1777963709 | 16.67° C | 92% | 1014.2 hPa | 0 mm | 0.45 m/s, 68° | - | - |
| 1777963409 | 16.67° C | 92% | 1014.1 hPa | 0 mm | 0.45 m/s, 9° | - | - |
| 1777963109 | 16.67° C | 93% | 1014.5 hPa | 0 mm | 0.45 m/s, 265° | - | - |
| 1777963095 | 16.67° C | 93% | 1014.7 hPa | 0 mm | 0.45 m/s, 309° | - | - |
* Rain latest hour (hover to see other rain measurements)
** Current wind speed in m/s (hover to see current wind gust speed)